This demonstration page uses our WeatherBlox Daily Observations layout. Learn more.

Left ArrowRight Arrow

34.16533, -84.80231

Hourly Observations for April 10, 2020

Temp ( °F °C ) Dew Point ( °F °C ) Humidity (%) Winds ( mph kmh ) Pressure ( in mb ) Visibility ( mi km ) Precip ( " mm )
12:53 am 00:53 Mostly Clear 59 15 44 6.7 58 58 Calm 29.83 1010 10 16 0.00 0.00
1:53 am 01:53 Clear 56 13.3 44 6.7 65 65 Calm 29.81 1010 10 16 0.00 0.00
2:53 am 02:53 Clear 56 13.3 43 6.1 62 62 Calm 29.80 1009 10 16 0.00 0.00
3:53 am 03:53 Clear 55 12.8 41 5 59 59 Calm 29.80 1009 10 16 0.00 0.00
4:53 am 04:53 Clear 54 12.2 38 3.3 55 55 Calm 29.80 1009 10 16 0.00 0.00
5:53 am 05:53 Clear 55 12.8 26 -3.3 33 33 NNW 14 22 29.86 1011 10 16 0.00 0.00
6:53 am 06:53 Clear 53 11.7 24 -4.4 32 32 NNW 8 13 29.91 1013 10 16 0.00 0.00
7:53 am 07:53 Sunny 51 10.6 25 -3.9 36 36 NNW 9 15 29.96 1015 10 16 0.00 0.00
8:53 am 08:53 Sunny 50 10 29 -1.7 44 44 N 12 19 30.00 1016 10 16 0.00 0.00
9:53 am 09:53 Sunny 51 10.6 22 -5.6 32 32 NNW 8 13 30.01 1016 10 16 0.00 0.00
10:53 am 10:53 Sunny 52 11.1 24 -4.4 34 34 N 13 20 30.02 1017 10 16 0.00 0.00
11:53 am 11:53 Sunny 54 12.2 28 -2.2 37 37 N 10 17 30.03 1017 10 16 0.00 0.00
12:53 pm 12:53 Sunny 55 12.8 25 -3.9 31 31 N 16 26 30.03 1017 10 16 0.00 0.00
1:53 pm 13:53 Sunny 57 13.9 22 -5.6 26 26 NNW 13 20 30.03 1017 10 16 0.00 0.00
2:53 pm 14:53 Sunny 59 15 24 -4.4 26 26 N 12 19 30.00 1016 10 16 0.00 0.00
3:53 pm 15:53 Sunny 59 15 24 -4.4 26 26 N 9 15 29.99 1016 10 16 0.00 0.00
4:53 pm 16:53 Sunny 61 16.1 25 -3.9 25 25 N 8 13 29.98 1015 10 16 0.00 0.00
5:53 pm 17:53 Sunny 62 16.7 26 -3.3 25 25 N 8 13 29.98 1015 10 16 0.00 0.00
6:53 pm 18:53 Sunny 59 15 25 -3.9 27 27 N 8 13 29.99 1016 10 16 0.00 0.00
7:53 pm 19:53 Sunny 56 13.3 27 -2.8 33 33 Calm 29.98 1015 10 16 0.00 0.00
8:53 pm 20:53 Clear 45 7.2 34 1.1 66 66 Calm 29.99 1016 10 16 0.00 0.00
9:53 pm 21:53 Clear 44 6.7 34 1.1 68 68 Calm 30.01 1016 10 16 0.00 0.00
10:53 pm 22:53 Clear 41 5 34 1.1 76 76 Calm 30.03 1017 10 16 0.00 0.00
11:53 pm 23:53 Clear 40 4.4 34 1.1 79 79 Calm 30.04 1017 10 16 0.00 0.00

Powered by AerisWeather